[[{"header":{"parameterUnit":"m.s-1","parameterCategory":1,"la1":30.2991,"la2":30.254,"lo1":-89.0895,"lo2":-89.0444,"dy":0.0017,"dx":0.0017,"nx":28,"ny":28,"refTime":"2025-07-11T09:00:00:Z","depth":0,"parameterNumber":2,"parameterNumberName":"U-component_of_WINDS"},"data":[0,0,0,0,0,0,0,0,0,0,0,0,0,0,0,0,0,0,0,0,0,0,0,0,0,0,0,0,0,0,0,0,0,0,0,0,0,0,0,0,0,0,0,0,0,0,0,0,0,0,0,0,0,0,0,0,0,0,2.4123,2.4123,0,2.4184,2.4184,2.4185,2.4157,2.4156,2.4154,2.4153,2.4215,2.4218,2.4221,0,0,0,0,0,0,0,0,0,0,0,0,0,2.3979,2.3982,2.4123,2.4123,2.4124,2.4184,2.4185,2.4185,2.4157,2.4155,2.4154,2.4152,2.4214,2.4218,2.4222,0,0,0,0,0,0,0,0,0,0,0,0,0,2.4041,2.3983,2.4122,2.4117,2.4117,2.4183,2.4185,2.4186,2.4158,2.4155,2.4153,2.4151,2.4213,2.4218,2.4222,2.4297,0,0,2.4236,2.4238,0,0,0,0,0,0,0,0,2.4038,2.4046,2.4117,2.4118,2.4118,2.416,2.4157,2.4223,2.4158,2.4142,2.4153,2.415,2.4199,2.4205,2.4221,2.43,2.4302,2.4237,2.424,2.4242,2.4243,0,0,0,0,0,0,0,2.4033,2.4044,2.4147,2.4118,2.4119,2.4111,2.4117,2.4169,2.4183,2.4144,2.4142,2.4149,2.4199,2.4217,2.4222,2.4303,2.4237,2.4241,2.4244,2.4245,2.4442,2.4445,0,0,0,0,0,0,2.4029,2.404,2.4145,2.4149,2.4071,2.4116,2.4123,2.4149,2.4182,2.4185,2.4151,2.4148,2.421,2.4217,2.4224,2.4311,2.4242,2.4246,2.4249,2.444,2.4443,2.4445,0,0,0,0,0,0,2.4026,2.4039,2.4142,2.4094,2.4106,2.4121,2.4151,2.4152,2.4169,2.4188,2.419,2.4167,2.4208,2.4218,2.4278,2.4313,2.4248,2.4252,2.4437,2.4441,2.4444,2.4487,0,0,0,0,0,0,2.4022,2.4038,2.4067,2.4095,2.4109,2.4196,2.4153,2.4154,2.4178,2.4174,2.4204,2.4206,2.4207,2.4271,2.4283,2.4318,2.4256,2.4434,2.4439,2.4443,2.4482,2.4491,2.4499,0,0,0,0,0,2.4017,2.4078,2.4069,2.4082,2.4146,2.4198,2.4206,2.4206,2.4181,2.4209,2.4221,2.4205,2.4308,2.4278,2.429,2.4328,2.4432,2.4437,2.4443,2.4478,2.4489,2.4499,0,0,0,0,0,0,2.4055,2.4081,2.4072,2.4143,2.4168,2.4193,2.4229,2.4218,2.4251,2.4246,2.4245,2.4252,2.4313,2.4327,2.4293,2.44,2.4366,2.4374,2.4388,2.4399,2.4407,2.4402,2.426,0,0,0,0,0,2.4071,2.4111,2.4132,2.4193,2.4206,2.4216,2.4238,2.4236,2.4262,2.4273,2.4288,2.4314,2.4351,2.4377,2.4412,2.4484,2.4489,2.4516,2.4524,2.4531,2.4538,2.4573,2.4585,2.4463,2.4463,2.4463,0,0,2.4106,2.4125,2.4151,2.4201,2.422,2.426,2.4225,2.427,2.4299,2.4279,2.4336,2.4349,2.4377,2.4443,2.4472,2.4456,2.4572,2.4538,2.4544,2.4546,2.458,2.4592,2.4602,2.4467,2.4467,2.4466,0,0,2.4188,2.4208,2.4259,2.4279,2.4308,2.4313,2.4326,2.4352,2.4359,2.4416,2.44,2.4436,2.4501,2.4521,2.454,2.4627,2.4613,2.4639,2.4682,2.4717,2.4727,2.4735,2.4763,2.4774,2.4646,2.4646,2.4646,0,2.4227,2.4288,2.4287,2.4332,2.4353,2.4336,2.4386,2.4406,2.4445,2.446,2.4441,2.4521,2.4539,2.4607,2.4628,2.4645,2.4657,2.4635,2.4725,2.4734,2.4742,2.4768,2.4779,2.4649,2.4648,2.4648,2.4648,0,2.4332,2.4375,2.4412,2.4449,2.4475,2.4523,2.4528,2.4554,2.4549,2.4556,2.4613,2.4634,2.4672,2.4688,2.4685,2.4755,2.4743,2.4725,2.469,2.4756,2.4781,2.4791,2.4653,2.4652,2.4651,2.465,0,0,2.444,2.4475,2.4488,2.4503,2.4533,2.4565,2.4612,2.4648,2.4669,2.4697,2.4734,2.4789,2.4771,2.4792,2.479,2.4821,2.4885,2.4799,2.4799,2.4811,2.496,2.4971,2.4983,2.4876,2.4878,2.488,2.4956,0,2.4523,2.4603,2.4602,2.4676,2.4713,2.4696,2.4736,2.4758,2.4766,2.4798,2.4806,2.4843,2.4819,2.4831,2.4861,2.4871,2.4914,2.4865,2.4909,2.491,2.4899,2.4997,2.501,2.5081,2.4966,2.4968,2.4969,0,2.463,2.4659,2.4736,2.4757,2.4773,2.4809,2.484,2.4872,2.4896,2.4899,2.4921,2.4914,2.4959,2.4924,2.4985,2.4952,2.4969,2.4977,2.4979,2.4981,2.4942,2.4999,2.5104,2.5114,2.4985,2.4984,2.4983,0,2.4696,2.4756,2.4808,2.4822,2.485,2.4874,2.4887,2.4908,2.493,2.4958,2.4971,2.5004,2.5022,2.5047,2.5048,2.5023,2.5108,2.5075,2.511,2.511,2.5127,2.5126,2.5234,2.5143,2.5143,2.5143,2.5143,0,2.4787,2.4834,2.4838,2.487,2.4922,2.492,2.4971,2.4981,2.5,2.5032,2.5021,2.5052,2.5053,2.5084,2.5086,2.5134,2.5143,2.5145,2.5144,2.5145,2.5144,2.5154,2.5148,2.5146,2.5145,2.5145,2.5144,0,2.487,2.4875,2.493,2.4951,2.4957,2.4994,2.5011,2.5041,2.5047,2.5088,2.5098,2.5107,2.5143,2.5147,2.519,2.519,2.5247,2.5243,2.5239,2.5237,2.5271,2.5267,2.5388,2.5403,2.5305,2.5306,2.5307,0,2.4926,2.4961,2.4985,2.5006,2.5019,2.5053,2.5074,2.5073,2.5095,2.5123,2.5149,2.5184,2.5211,2.5269,2.5279,2.5311,2.5305,2.5346,2.531,2.5308,2.5302,2.5299,2.5301,2.5352,2.5353,2.5354,2.5355,0,2.5024,2.5024,2.5054,2.5085,2.511,2.5134,2.5157,2.5174,2.5176,2.5201,2.5237,2.5259,2.53,2.5334,2.5365,2.5377,2.5365,2.5366,2.5375,2.5374,2.5369,2.5369,2.5254,2.5363,2.5362,2.5361,2.5361,2.536,2.5093,2.5122,2.5142,2.5176,2.5192,2.5213,2.5241,2.525,2.528,2.5313,2.5311,2.535,2.5371,2.541,2.5424,2.5454,2.5441,2.5455,2.5458,2.5461,2.5463,2.5367,2.546,2.546,2.546,2.546,2.5459,0,2.5187,2.5199,2.523,2.5261,2.5287,2.5274,2.5298,2.5319,2.5354,2.5374,2.54,2.544,2.5472,2.5484,2.5515,2.5536,2.5531,2.5544,2.5541,2.5543,2.5475,2.5462,2.5547,2.5547,2.5547,2.5547,2.5547,2.5547,2.5239,2.5287,2.5289,2.5344,2.5356,2.5393,2.5407,2.5426,2.5441,2.5486,2.5512,2.552,2.5536,2.5567,2.5595,2.5598,2.5608,2.5622,2.5623,2.5558,2.5549,2.554,2.5528,2.5625,2.5626,2.5688,2.5689,2.5689]},{"header":{"parameterUnit":"m.s-1","parameterCategory":1,"la1":30.2991,"la2":30.254,"lo1":-89.0895,"lo2":-89.0444,"dy":0.0017,"dx":0.0017,"nx":28,"ny":28,"refTime":"2025-07-11T09:00:00:Z","depth":0,"parameterNumber":3,"parameterNumberName":"V-component_of_WINDS"},"data":[0,0,0,0,0,0,0,0,0,0,0,0,0,0,0,0,0,0,0,0,0,0,0,0,0,0,0,0,0,0,0,0,0,0,0,0,0,0,0,0,0,0,0,0,0,0,0,0,0,0,0,0,0,0,0,0,0,0,2.9226,2.9227,0,2.9278,2.9279,2.9279,2.9236,2.9234,2.9233,2.9231,2.9281,2.9284,2.9287,0,0,0,0,0,0,0,0,0,0,0,0,0,2.9085,2.9087,2.9226,2.9227,2.9227,2.9278,2.9279,2.928,2.9236,2.9234,2.9232,2.923,2.928,2.9283,2.9287,0,0,0,0,0,0,0,0,0,0,0,0,0,2.9142,2.9088,2.9226,2.9212,2.9211,2.9278,2.9279,2.928,2.9237,2.9234,2.9232,2.9229,2.9279,2.9283,2.9288,2.937,0,0,2.9301,2.9303,0,0,0,0,0,0,0,0,2.9139,2.9147,2.9214,2.9213,2.9213,2.9248,2.9247,2.931,2.9238,2.9227,2.9231,2.9228,2.9272,2.9277,2.9292,2.9372,2.9374,2.9302,2.9305,2.9307,2.9308,0,0,0,0,0,0,0,2.9135,2.9145,2.9247,2.9214,2.9214,2.9202,2.9207,2.9259,2.9264,2.9228,2.9225,2.9232,2.9271,2.9288,2.9293,2.9375,2.9302,2.9306,2.9309,2.931,2.9522,2.9525,0,0,0,0,0,0,2.9133,2.9142,2.9245,2.9248,2.9168,2.9206,2.9212,2.9239,2.9263,2.9264,2.9234,2.923,2.9282,2.9288,2.9295,2.9391,2.9306,2.9311,2.9313,2.9519,2.9523,2.9526,0,0,0,0,0,0,2.913,2.9143,2.9243,2.9194,2.9206,2.9212,2.9242,2.9242,2.9259,2.9268,2.9268,2.9251,2.928,2.9289,2.9351,2.9392,2.9313,2.9317,2.9516,2.952,2.9524,2.9585,0,0,0,0,0,0,2.9126,2.9142,2.9174,2.9195,2.9209,2.93,2.9245,2.9245,2.9267,2.9262,2.9284,2.9285,2.9278,2.9345,2.9356,2.9397,2.932,2.9512,2.9518,2.9523,2.9579,2.9591,2.9601,0,0,0,0,0,2.9121,2.9189,2.9176,2.9189,2.925,2.9302,2.931,2.9302,2.9271,2.9302,2.9308,2.9284,2.9386,2.9351,2.9363,2.9407,2.9509,2.9516,2.9522,2.9574,2.9589,2.9601,0,0,0,0,0,0,2.9172,2.9192,2.9178,2.9255,2.9277,2.9295,2.9335,2.9318,2.9349,2.9342,2.933,2.9335,2.9401,2.941,2.9371,2.9486,2.9442,2.9452,2.9478,2.9491,2.9502,2.9498,2.9324,0,0,0,0,0,2.9192,2.9235,2.9249,2.9315,2.9328,2.933,2.9352,2.9344,2.9366,2.9375,2.9386,2.9407,2.9444,2.9468,2.9503,2.9581,2.9583,2.9616,2.9627,2.9636,2.9643,2.9683,2.9697,2.9547,2.9547,2.9547,0,0,2.9234,2.925,2.9278,2.9326,2.9343,2.9385,2.9338,2.9385,2.9416,2.9382,2.9442,2.945,2.9473,2.9543,2.9575,2.9553,2.9685,2.9644,2.9651,2.9654,2.9691,2.9705,2.9718,2.9552,2.9551,2.955,0,0,2.9332,2.935,2.9406,2.9423,2.9449,2.945,2.9463,2.9484,2.9488,2.9548,2.9523,2.9559,2.9623,2.9639,2.9657,2.9759,2.9738,2.9771,2.9827,2.9865,2.9877,2.9888,2.9923,2.9935,2.9779,2.9779,2.9779,0,2.9381,2.9445,2.9437,2.9486,2.9507,2.9479,2.9535,2.9552,2.9587,2.9601,2.9577,2.9655,2.9669,2.9742,2.9767,2.9782,2.9795,2.9768,2.9877,2.9887,2.9896,2.9929,2.9943,2.9783,2.9782,2.9782,2.9781,0,2.9503,2.9548,2.959,2.9625,2.9651,2.9703,2.9701,2.9727,2.9717,2.9719,2.9779,2.9795,2.9831,2.9848,2.9838,2.9919,2.9904,2.9879,2.9834,2.9914,2.9945,2.9958,2.9788,2.9787,2.9786,2.9785,0,0,2.9634,2.9664,2.9679,2.9694,2.972,2.9754,2.9804,2.984,2.9862,2.9887,2.9927,2.9981,2.9957,2.9977,2.9968,3.0002,3.0081,2.9972,2.9972,2.999,3.0168,3.0187,3.0202,3.0067,3.0069,3.0071,3.0166,0,2.9732,2.982,2.9813,2.9896,2.9936,2.9909,2.9952,2.9972,2.9975,3.0008,3.0012,3.005,3.0016,3.0027,3.006,3.0064,3.0116,3.0057,3.0102,3.0104,3.0096,3.0218,3.0238,3.0327,3.0178,3.018,3.0182,0,2.9858,2.9888,2.9975,2.9993,3.0009,3.0049,3.008,3.0113,3.0134,3.0133,3.0155,3.014,3.0188,3.0143,3.0208,3.0169,3.0186,3.0191,3.0194,3.0197,3.0147,3.0223,3.0355,3.0368,3.0201,3.0199,3.0198,0,2.9944,3.0005,3.0065,3.0078,3.0102,3.0129,3.014,3.0158,3.018,3.0207,3.022,3.0253,3.027,3.0295,3.0288,3.0256,3.0354,3.0309,3.0354,3.0354,3.0375,3.0373,3.051,3.0389,3.0388,3.0388,3.0388,0,3.0053,3.0106,3.0103,3.0139,3.0198,3.0189,3.0246,3.0253,3.027,3.0305,3.0285,3.0318,3.0308,3.0341,3.0336,3.039,3.0398,3.0398,3.0396,3.04,3.0399,3.041,3.0403,3.0392,3.0391,3.039,3.039,0,3.0158,3.0158,3.022,3.0237,3.0243,3.0285,3.0298,3.0332,3.0333,3.0379,3.0389,3.0391,3.0428,3.0424,3.0466,3.0463,3.0529,3.052,3.0522,3.052,3.0564,3.0559,3.0712,3.073,3.0598,3.0599,3.06,0,3.0227,3.0268,3.0289,3.0312,3.0324,3.0362,3.0384,3.0375,3.0399,3.0425,3.0454,3.049,3.0518,3.0579,3.0583,3.0615,3.0605,3.0657,3.061,3.0611,3.0604,3.0601,3.0605,3.0665,3.0667,3.0668,3.0669,0,3.0349,3.0347,3.038,3.0413,3.044,3.0465,3.0487,3.0507,3.0501,3.0528,3.0566,3.0588,3.0631,3.0666,3.0695,3.0704,3.0685,3.0684,3.0696,3.0699,3.0698,3.0697,3.0546,3.068,3.0679,3.0678,3.0678,3.0677,3.0437,3.0471,3.0491,3.0528,3.0544,3.0566,3.0598,3.0603,3.0635,3.067,3.0663,3.0706,3.0723,3.0761,3.0773,3.0805,3.0787,3.0804,3.0808,3.0812,3.0817,3.0694,3.0811,3.0811,3.081,3.081,3.081,0,3.0557,3.0568,3.0602,3.0635,3.0663,3.0644,3.0668,3.0692,3.0731,3.075,3.0778,3.0821,3.0854,3.0861,3.0893,3.0917,3.0909,3.0925,3.0923,3.0925,3.0833,3.0819,3.0931,3.0931,3.0931,3.0931,3.0931,3.0931,3.0622,3.0679,3.0679,3.0742,3.0752,3.0795,3.081,3.0829,3.0843,3.0893,3.0921,3.0925,3.0939,3.0971,3.1,3.1001,3.1013,3.1033,3.103,3.0944,3.0931,3.092,3.0907,3.1036,3.1036,3.1119,3.112,3.1121]}]]